COSMOS 1339

Satellite information

Favourite Embed

Satellite Type and Status

PAYLOADIN ORBIT

Key statistics

Satellite COSMOS 1339 at a glance.

Uptime

15900

Days in orbit

Revolutions

≈ 13.8

Per day

Orbit

LEO

Low Earth Orbit

Inclination

82.9

Latest

Satellite identification and parameters

Extended collection of information and parameters for COSMOS 1339.

Object identification

Identified? True

Debris? False

Object name: COSMOS 1339

International designator: 1982-012A

Object number (NORAD): 13065

Object ID (CCSDS): 13065

Country: COMMONWEALTH OF INDEPENDENT STATES (CIS)

Current information (Y/N): Y

RCS size: LARGE

Orbital parameters

Period: 104.67 minutes

Inclination: 82.9038 deg

SMA: 7357.135 km

Apoapsis: 1009.824 km

Periapsis: 948.177 km

RAAN: 176.7553 deg

Eccentricy: 0.00418961

Argument of periapsis: 252.0393 deg

Mean anomaly: 107.6194 deg

Mean motion: 13.75750443 rev/day

Mean motion (dot): 0.00000098 rev/day2

B* drag term: 0.000085944656 1/REarth

Two-line elements (TLE)

Creation date: Aug. 30, 2025, 3:38 a.m.

Reference frame: TEME

Reference center: EARTH

Epoch: Aug. 29, 2025, 10:19 p.m. UTC

TLE line 0: 0 COSMOS 1339

TLE line 1: 1 13065U 82012A 25241.92989076 .00000098 00000-0 85945-4 0 9994

TLE line 2: 2 13065 82.9038 176.7553 0041896 252.0393 107.6194 13.75750443184485

Live tracking on map

Real-time ground track for satellite COSMOS 1339.

In-orbit conjunctions

A list of the most updated potential collisions computed for object COSMOS 1339.

Target Orbit TCA Probability of collision Miss distance Type
THORAD AGENA D DEB SSO 2025-01-01 23:21:43 0.0001143372 255.0 (m) DEBRIS

Associated space launch

Civilian navigation satellite equivalent to the purely military Parus

COSMOS 1339 was lifted into orbit during the mission ‘Kosmos-3M | Tsikada 9’, on board a Kosmos-3M space rocket.

The launch took place on Feb. 17, 1982, 9:56 p.m. from 132/2.

For more information about the launch, click the button.

Launch to space Kosmos-3M | Tsikada 9
Kosmos-3M | Tsikada 9

Agency: N/A

Status: Launch Successful

Launch date: Feb. 17, 1982, 9:56 p.m. UTC

Rocket: Kosmos-3M

Launch pad: 132/2

Location: Plesetsk Cosmodrome, Russian Federation

...

Latest news about this satellite

There are no fresh news available about this satellite. Check back as we update our databases every day.


Newsletter sign-up

Weekly statistics, charts and insights to help you stay on top of the space industry.